| time (UTC) | temp C | wind direction | speed KPH | gust KPH | rain 1hr cm | rain 24hr cm | rain mn cm | humidity % | barometer mb |
| 20260506132026 | 7 | 260 | 19.3 | 41.8 | 0.00 | 0.00 | 0.00 | 93 | |
| 20260506122026 | 6 | 270 | 14.5 | 38.6 | 0.00 | 0.00 | 0.00 | 99 | |
| 20260506111959 | 5 | 270 | 19.3 | 41.8 | 0.00 | 0.00 | 0.00 | 99 | |
| 20260506102200 | 5 | 250 | 32.2 | 53.1 | 0.00 | 0.00 | 0.00 | 99 | |
| 20260506081958 | 5 | 260 | 25.7 | 57.9 | 0.00 | 0.00 | 0.00 | 99 | |
| 20260506071959 | 3 | 240 | 35.4 | 69.2 | 0.00 | 0.00 | 0.00 | 99 | |
| 20260506062000 | 3 | 250 | 32.2 | 72.4 | 0.00 | 0.00 | 0.00 | 99 | |
| 20260506042158 | 5 | 250 | 35.4 | 83.7 | 0.00 | 0.00 | 0.00 | 99 | |
| 20260506032001 | 5 | 240 | 32.2 | 61.2 | 0.00 | 0.00 | 0.00 | 99 | |
| 20260506021959 | 6 | 250 | 41.8 | 0.0 | 0.00 | 0.00 | 0.00 | 81 | |
| 20260506012100 | 6 | 290 | 35.4 | 0.0 | 0.00 | 0.00 | 0.00 | 99 | |
| 20260506001957 | 6 | 220 | 41.8 | 0.0 | 0.00 | 0.00 | 0.00 | 99 | |
| 20260505231957 | 7 | 230 | 41.8 | 0.0 | 0.00 | 0.00 | 0.00 | 99 | |
| 20260505221958 | 7 | 150 | 29.0 | 0.0 | 0.00 | 0.00 | 0.00 | 99 | |
| 20260505212046 | 7 | 110 | 22.5 | 0.0 | 0.00 | 0.00 | 0.00 | 87 | |
| 20260505202041 | 7 | 60 | 8.0 | 0.0 | 0.00 | 0.00 | 0.00 | 99 | |
| 20260505192034 | 7 | 100 | 19.3 | 0.0 | 0.00 | 0.00 | 0.00 | 99 | |
| 20260505182027 | 8 | 40 | 14.5 | 0.0 | 0.00 | 0.00 | 0.00 | 93 | |
| 20260505172026 | 8 | 20 | 25.7 | 0.0 | 0.00 | 0.00 | 0.00 | 99 | |
| 20260505162114 | 10 | 10 | 22.5 | 0.0 | 0.00 | 0.00 | 0.00 | 81 | |
| 20260505152026 | 11 | 20 | 25.7 | 0.0 | 0.00 | 0.00 | 0.00 | 81 |